Regional Weather Roundup
Issued by NWS

Home | Current Version | Previous Version | Text Only | Print | Product List | Glossary On
Versions: 1 2 3 4 5 6 7 8 9 10 11 12 13 14 15 16 17 18 19 20 21 22 23 24 25 26 27 28 29 30 31 32 33 34 35 36 37 38 39 40 41 42 43 44 45 46 47 48 49 50
000
ASUS45 KPSR 262110
RWRAZ

ARIZONA REGIONAL HOURLY WEATHER ROUNDUP
NATIONAL WEATHER SERVICE PHOENIX AZ
200 PM MST WED NOV 26 2014

NOTE: FAIR INDICATES FEW OR NO CLOUDS BELOW 12,000 FEET WITH NO
SIGNIFICANT WEATHER AND/OR OBSTRUCTIONS TO VISIBILITY.

AZZ001>003-036-262200-
NORTHWEST ARIZONA

CITY           SKY/WX    TMP DP  RH WIND       PRES   REMARKS
BULLHEAD CITY  SUNNY     72  14  11 N18G24    30.26F
KINGMAN        SUNNY     66  14  13 NE7       30.33F
$$

AZZ004>008-015-016-018-262200-
NORTH CENTRAL ARIZONA

CITY           SKY/WX    TMP DP  RH WIND       PRES   REMARKS
GRAND CANYON   SUNNY     61  17  18 SW8       30.43F
PRESCOTT       SUNNY     67  19  16 N6        30.36F
FLAGSTAFF      SUNNY     61  15  16 E10       30.43F
PAYSON         SUNNY     68  21  17 SW8       30.35F
PAGE           SUNNY     57  17  21 VRB5      30.36F
$$

AZZ009>014-017-262200-
NORTHEAST ARIZONA

CITY           SKY/WX    TMP DP  RH WIND       PRES   REMARKS
WINSLOW        SUNNY     60  16  18 CALM      30.40F
SAINT JOHNS    SUNNY     58  17  20 W9        30.37F
SHOW LOW       SUNNY     55  18  22 N13       30.43S
$$

AZZ023-262200-
GREATER PHOENIX AREA

CITY           SKY/WX    TMP DP  RH WIND       PRES   REMARKS
PHOENIX        SUNNY     70  14  11 W6        30.20F
BUCKEYE          N/A     68  16  13 CALM      30.22F
GLENDALE       SUNNY     70  16  12 VRB3      30.22F
LUKE AFB       SUNNY     69  18  14 CALM      30.20F
DEER VALLEY    SUNNY     69  10  10 W6        30.21F
SCOTTSDALE     SUNNY     70  14  11 CALM      30.22F
MESA-GATEWAY   SUNNY     66  19  16 W3        30.23F
CHANDLER       SUNNY     70  18  13 CALM      30.20F
$$

AZZ027-028-262200-
SOUTHWEST MARICOPA COUNTY AND PINAL COUNTY

CITY           SKY/WX    TMP DP  RH WIND       PRES   REMARKS
CASA GRANDE    SUNNY     68  14  12 CALM      30.21F
GILA BEND      CLEAR     72   9   8 N9        30.19F
$$

AZZ503-504-507>509-262200-
SOUTHEAST ARIZONA

CITY           SKY/WX    TMP DP  RH WIND       PRES   REMARKS
TUCSON         SUNNY     73  10   9 N7        30.23F
DAVIS-MONTHAN  SUNNY     70  11  10 NW3       30.21F
RYAN FIELD       N/A     75  23  14 W3        30.23F
NOGALES        SUNNY     75  16  10 W7        30.22F
SIERRA VISTA   SUNNY     70  12  11 E6        30.29F
DOUGLAS        SUNNY     68   9  10 VRB3      30.27F
SAFFORD        SUNNY     63   8  11 VRB3      30.26F
$$

AZZ020-021-025-026-031-262200-
SOUTHWEST ARIZONA

CITY           SKY/WX    TMP DP  RH WIND       PRES   REMARKS
YUMA           SUNNY     77  14   9 N13       30.20F
$$

CAZ031-033-041-043-047-048-061-262200-
SOUTHERN CALIFORNIA

CITY           SKY/WX    TMP DP  RH WIND       PRES   REMARKS
DOWNTOWN L.A.  SUNNY     84  24  11 CALM      30.14F
L.A. AIRPORT   SUNNY     73  30  20 W10       30.16F
SAN DIEGO      SUNNY     79  26  14 NW7       30.14F
BURBANK        SUNNY     83  19   9 S6        30.17F
ONTARIO        SUNNY     84  22  10 SW5       30.17F
RIVERSIDE      SUNNY     87  16   7 VRB5      30.17F
PALM SPRINGS   SUNNY     76  17  11 VRB5      30.23F
EL CENTRO NAS  SUNNY     76  24  14 N3        30.21F
IMPERIAL       SUNNY     75  28  17 NW3       30.21F
BLYTHE         SUNNY     71  20  14 S3        30.23F
NEEDLES        SUNNY     73  15  11 N5        30.25F
$$

NVZ020-UTZ003-262200-
SOUTHERN NEVADA-UTAH

CITY           SKY/WX    TMP DP  RH WIND       PRES   REMARKS
LAS VEGAS      SUNNY     65  14  14 CALM      30.29F
SALT LAKE CITY MOSUNNY   59  29  31 CALM      30.36F
$$

NMZ009-TXZ055-262200-
NEW MEXICO-WEST TEXAS

CITY           SKY/WX    TMP DP  RH WIND       PRES   REMARKS
ALBUQUERQUE    MOSUNNY   56  20  24 CALM      30.33F
EL PASO        SUNNY     64  16  15 VRB3      30.27F
$$


........................KEY........................
SKY/WX - SKY CONDITION/WEATHER
TMP    - TEMPERATURE IN FAHRENHEIT
DP     - DEW POINT IN FAHRENHEIT
RH     - RELATIVE HUMIDITY IN PERCENT
WIND   - DIRECTION AND SPEED IN MILES PER HOUR (MPH)
VRB    - VARIABLE WIND DIRECTION
PRES   - MEAN SEA LEVEL PRESSURE IN INCHES OF MERCURY
         F - FALLING PRESSURE   R - RISING PRESSURE
         S - STEADY PRESSURE
VSB    - VISIBILITY IN MILES
HX     - HEAT INDEX IN FAHRENHEIT
WCI    - WIND CHILL INDEX IN FAHRENHEIT
TC     - TEMPERATURE IN CELSIUS WHICH IS ALSO KNOWN AS
         TEMPERATURE IN CENTIGRADE
AFB    - AIR FORCE BASE
         LUKE AFB IS LUKE AIR FORCE BASE
         DAVIS-MONTHAN IS DAVIS-MONTHAN AIR FORCE BASE
NAS    - NAVAL AIR STATION
         EL CENTRO NAS IS EL CENTRO NAVAL AIR STATION
N/A    - NOT AVAILABLE



USA.gov is the U.S. government's official web portal to all federal, state and local government web resources and services.